LiveATC.Net - Listen to live air traffic control over the Internet!


ICAO: EHMM  IATA:   Airport: Middenmeer Aerodrome
City: Middenmeer
Country: Netherlands   Continent: Europe
EHKD METAR Weather: EHKD 141655Z AUTO 24016KT 9999 BKN048 OVC061 17/13 Q1010 BLU NOSIG
EHMM ADS-B Flight Tracking  (ADSBExchange)
EHMM Flight Activity (FlightAware)

EHMM CTAF
Feed Status: UP   Listeners: 0
Listen in your browser - HTML5 player (in browser, HTML5)
Click here to listen with your own player (launches your MP3 player)
Archive Access: EHMM CTAF
FacilityFrequency
Middenmeer CTAF123.425

NOTICE

Unauthorized use prohibited. See LiveATC.net Terms of Service


Airport/ARTCC Code
Frequency Search
(e.g., 124.400, 128.75)
Site-wide search
 


Browse Feeds
Top 50 Feeds
HF Oceanic Feeds
Coverage Map
Bad Weather Areas

LiveATC FAQ

Increase Coverage

Contact LiveATC.net
Press Inquiries

LiveATC on iPhone
LiveATC on Android

LiveATC Mobile
(Mobile browser)

ATC Audio Archives
Interesting Recordings

LiveATC Forums


Home Page
About LiveATC.net


Terms of Use
Privacy Policy

AIRMETs/SIGMETs

FAA Airport Status
NAS Status
Arrival Demand


Server Software By:
Icecast.org
Liquidsoap